Login
Access
Login with your mtb-forum.it nickname and password.


You do not have an account? Sign up here for free

carulrs

Last training unit 01/04/2015
0
Followers
5 091 Km
itineraries
51 456 m
of total vertical gain
189
hours of riding
27.63 Km/h
average speed
125
average HR


01/04/2015 Show to everybody 04/01/2015 Grottazzolina, Marche, Italy 32.08 Km 224 m 01:11:36 26.88 Km\h
01/04/2015 Show to everybody 04/01/2015 Grottazzolina, Marche, Italy 32.08 Km 224 m 01:11:36 26.88 Km\h
31/03/2015 Show to everybody 03/31/2015 Grottazzolina, Marche, Italy 57.63 Km 1329 m 02:21:11 24.49 Km\h
29/03/2015 Show to everybody 03/29/2015 Grottazzolina, Marche, Italy 88.49 Km 426 m 03:06:24 28.49 Km\h
28/03/2015 Show to everybody 03/28/2015 Marche, Italy 71.63 Km 214 m 02:08:04 33.56 Km\h
26/03/2015 Show to everybody 03/26/2015 Grottazzolina, Marche, Italy 82.75 Km 896 m 02:40:50 30.87 Km\h
26/03/2015 Show to everybody 03/26/2015 Grottazzolina, Marche, Italy 82.75 Km 896 m 02:40:50 30.87 Km\h
24/03/2015 Show to everybody 03/24/2015 Grottazzolina, Marche, Italy 62.81 Km 1494 m 02:28:27 25.39 Km\h
23/03/2015 Show to everybody 03/23/2015 Grottazzolina, Marche, Italy 21.47 Km 113 m 00:44:17 29.09 Km\h
21/03/2015 Show to everybody 03/21/2015 Grottazzolina, Marche, Italy 97.97 Km 620 m 03:17:53 29.71 Km\h
20/03/2015 Show to everybody 03/20/2015 Grottazzolina, Marche, Italy 43.06 Km 859 m 01:44:40 24.69 Km\h
19/03/2015 Show to everybody 03/19/2015 Grottazzolina, Marche, Italy 37.58 Km 732 m 01:13:51 30.53 Km\h
18/03/2015 Show to everybody 03/18/2015 Grottazzolina, Marche, Italy 68.68 Km 1167 m 02:24:14 28.57 Km\h
15/03/2015 Show to everybody 03/15/2015 Marche, Italy 62.03 Km 276 m 01:38:42 37.71 Km\h
14/03/2015 Show to everybody 03/14/2015 Grottazzolina, Marche, Italy 119.84 Km 1273 m 04:14:26 28.26 Km\h
10/03/2015 Show to everybody 03/10/2015 Grottazzolina, Marche, Italy 51.24 Km 552 m 01:49:39 28.04 Km\h
08/03/2015 Show to everybody 03/08/2015 Grottazzolina, Marche, Italy 93.14 Km 430 m 03:27:26 26.94 Km\h
07/03/2015 Show to everybody 03/07/2015 Grottazzolina, Marche, Italy 76.9 Km 392 m 02:59:43 25.67 Km\h
04/03/2015 Show to everybody 03/04/2015 Grottazzolina, Marche, Italy 42.91 Km 223 m 01:19:05 32.55 Km\h
04/03/2015 Show to everybody 03/04/2015 Grottazzolina, Marche, Italy 42.91 Km 223 m 01:19:05 32.55 Km\h
03/03/2015 Show to everybody 03/03/2015 Grottazzolina, Marche, Italy 52.46 Km 811 m 01:58:45 26.51 Km\h
01/03/2015 Show to everybody 03/01/2015 Porto Recanati, Marche, Italy 11.23 Km 8 m 00:15:20 43.95 Km\h
01/03/2015 Show to everybody 03/01/2015 Porto Recanati, Marche, Italy 12.4 Km 9 m 00:33:00 22.55 Km\h
01/03/2015 Show to everybody 03/01/2015 Porto Recanati, Marche, Italy 1.68 Km 0 m 00:08:24 12.01 Km\h
28/02/2015 Show to everybody 02/28/2015 Grottazzolina, Marche, Italy 80.29 Km 295 m 02:55:03 27.52 Km\h
27/02/2015 Show to everybody 02/27/2015 Grottazzolina, Marche, Italy 50.24 Km 234 m 01:50:53 27.18 Km\h
24/02/2015 Show to everybody 02/24/2015 Grottazzolina, Marche, Italy 40.02 Km 179 m 01:13:28 32.68 Km\h
21/02/2015 Show to everybody 02/21/2015 Marche, Italy 71.18 Km 376 m 01:49:48 38.89 Km\h
20/02/2015 Show to everybody 02/20/2015 Grottazzolina, Marche, Italy 37.68 Km 284 m 01:18:39 28.75 Km\h
19/02/2015 Show to everybody 02/19/2015 Grottazzolina, Marche, Italy 52.33 Km 280 m 01:49:40 28.63 Km\h
17/02/2015 Show to everybody 02/17/2015 Grottazzolina, Marche, Italy 78.12 Km 333 m 02:41:04 29.1 Km\h
15/02/2015 Show to everybody 02/15/2015 Grottazzolina, Marche, Italy 84.48 Km 774 m 03:22:41 25.01 Km\h
14/02/2015 Show to everybody 02/14/2015 Marche, Italy 74.78 Km 437 m 01:59:53 37.43 Km\h
12/02/2015 Show to everybody 02/12/2015 Grottazzolina, Marche, Italy 49.62 Km 279 m 01:29:00 33.45 Km\h
11/02/2015 Show to everybody 02/11/2015 Grottazzolina, Marche, Italy 24.28 Km 189 m 00:51:48 28.12 Km\h
10/02/2015 Show to everybody 02/10/2015 Grottazzolina, Marche, Italy 60.9 Km 427 m 01:58:03 30.95 Km\h
08/02/2015 Show to everybody 02/08/2015 Piane, Marche, Italy 87.91 Km 322 m 03:03:57 28.67 Km\h
03/02/2015 Show to everybody 02/03/2015 Grottazzolina, Marche, Italy 57.15 Km 233 m 02:06:42 27.06 Km\h
01/02/2015 Show to everybody 02/01/2015 Grottazzolina, Marche, Italy 73.55 Km 343 m 02:39:18 27.7 Km\h
31/01/2015 Show to everybody 01/31/2015 Grottazzolina, Marche, Italy 115.48 Km 1024 m 04:05:04 28.27 Km\h
29/01/2015 Show to everybody 01/29/2015 Grottazzolina, Marche, Italy 39.62 Km 496 m 01:36:10 24.72 Km\h
21/01/2015 Show to everybody 01/21/2015 Grottazzolina, Marche, Italy 47.1 Km 548 m 01:40:56 28 Km\h
18/01/2015 Show to everybody 01/18/2015 Grottazzolina, Marche, Italy 74.55 Km 489 m 02:40:25 27.88 Km\h
17/01/2015 Show to everybody 01/17/2015 Grottazzolina, Marche, Italy 86.17 Km 1002 m 03:13:57 26.66 Km\h
15/01/2015 Show to everybody 01/15/2015 Grottazzolina, Marche, Italy 28.4 Km 455 m 01:05:10 26.15 Km\h
14/01/2015 Show to everybody 01/14/2015 Grottazzolina, Marche, Italy 47.27 Km 530 m 01:43:56 27.29 Km\h
13/01/2015 Show to everybody 01/13/2015 Grottazzolina, Marche, Italy 44.3 Km 609 m 01:36:52 27.44 Km\h
06/01/2015 Show to everybody 01/06/2015 Grottazzolina, Marche, Italy 87.38 Km 516 m 03:08:26 27.82 Km\h
04/01/2015 Show to everybody 01/04/2015 Grottazzolina, Marche, Italy 89.31 Km 638 m 03:21:24 26.61 Km\h
03/01/2015 Show to everybody 01/03/2015 Grottazzolina, Marche, Italy 81.12 Km 389 m 02:57:29 27.42 Km\h
02/01/2015 Show to everybody 01/02/2015 Grottazzolina, Marche, Italy 84.28 Km 1421 m 03:05:04 27.32 Km\h
30/11/1999 Show to everybody 03/29/2015 Grottazzolina, Marche, Italy 88.49 Km 426 m 03:06:24 28.49 Km\h
30/11/1999 Show to everybody 03/19/2015 Grottazzolina, Marche, Italy 37.58 Km 732 m 01:13:51 30.53 Km\h

Show previous years trainings
This user's bikes.

10 points
Kilometers
0
Vertical gain
0
Rank:452

Watch ranking »

 

Bike name

Delete this bike?

Now you follow this users and you can compare your trainings

If you stop following this users you will not be able to compare your trainings with his


bdc-forum.it | 2012-2020 Training Camp v.1.0.15